This is the latest recevied weather packets stored in our database for station/object OK1FET-4. If no packets are shown the sender has not sent any weather packets the latest 10 day(s).
| Time | Temp. | Humidity | Pressure | Rain* | Wind** | Luminosity | Snow |
|---|---|---|---|---|---|---|---|
| 1788087437 | 26.11° C | 47% | 1015.8 hPa | - | - | - | - |
| 1788087135 | 25.56° C | 48% | 1015.8 hPa | - | - | - | - |
| 1788086834 | 25.56° C | 49% | 1015.8 hPa | - | - | - | - |
| 1788086532 | 26.11° C | 47% | 1015.7 hPa | - | - | - | - |
| 1788086231 | 25.56° C | 48% | 1015.8 hPa | - | - | - | - |
| 1788085929 | 26.11° C | 49% | 1015.8 hPa | - | - | - | - |
| 1788085628 | 25.56° C | 49% | 1016 hPa | - | - | - | - |
| 1788085327 | 25° C | 51% | 1015.9 hPa | - | - | - | - |
| 1788085025 | 24.44° C | 51% | 1016.2 hPa | - | - | - | - |
| 1788084724 | 24.44° C | 52% | 1016.2 hPa | - | - | - | - |
| 1788084423 | 23.89° C | 52% | 1016.2 hPa | - | - | - | - |
| 1788084122 | 23.89° C | 54% | 1016.4 hPa | - | - | - | - |
| 1788083820 | 23.33° C | 55% | 1016.3 hPa | - | - | - | - |
| 1788083519 | 23.33° C | 54% | 1016.4 hPa | - | - | - | - |
| 1788083218 | 23.33° C | 53% | 1016.3 hPa | - | - | - | - |
| 1788082916 | 23.89° C | 53% | 1016.3 hPa | - | - | - | - |
| 1788082615 | 23.89° C | 53% | 1016.4 hPa | - | - | - | - |
| 1788082314 | 23.33° C | 53% | 1016.4 hPa | - | - | - | - |
| 1788082013 | 23.89° C | 52% | 1016.3 hPa | - | - | - | - |
| 1788081711 | 24.44° C | 51% | 1016.3 hPa | - | - | - | - |
| 1788081410 | 25° C | 51% | 1016.3 hPa | - | - | - | - |
| 1788081108 | 25° C | 52% | 1016.3 hPa | - | - | - | - |
| 1788080807 | 24.44° C | 53% | 1016.4 hPa | - | - | - | - |
| 1788080505 | 24.44° C | 52% | 1016.4 hPa | - | - | - | - |
| 1788080215 | 24.44° C | 52% | 1016.5 hPa | - | - | - | - |
* Rain since midnight (hover to see other rain measurements)
** Current wind speed in m/s (hover to see current wind gust speed)